Eagle Creek, IN

7:00 AM EDT on May 26, 2017 (GMT -0400)
Eagle Creek

Weather History for KEYE - September, 2013

Change the Weather History Date:

Monday, September 23, 2013

  Actual Average Record
Temperature  
Mean Temperature 58 °F 64 °F  
Max Temperature 70 °F 74 °F 92 °F (2010)
Min Temperature 46 °F 54 °F 43 °F (2012)
Degree Days  
Heating Degree Days 7 3  
Month to date heating degree days 37 25  
Since 1 July heating degree days 48 28  
Cooling Degree Days 0 2  
Month to date cooling degree days 137 110  
Year to date cooling degree days 972 1030  
Growing Degree Days 8 (Base 50)    
Moisture  
Dew Point 45 °F    
Average Humidity 65    
Maximum Humidity 93    
Minimum Humidity 37    
Precipitation  
Precipitation 0.00 in 0.07 in 0.39 in (2001)
Month to date precipitation 1.58 1.71  
Year to date precipitation 29.07 30.36  
Sea Level Pressure  
Sea Level Pressure 30.06 in    
Wind  
Wind Speed 4 mph (East)    
Max Wind Speed 12 mph    
Max Gust Speed 18 mph    
Visibility 10 miles    
Events      
T = Trace of Precipitation, MM = Missing Value Source: NWS Daily Summary

Daily Weather History Graph

Daily Weather History Graph

Search for Another Location

Airport or City:

Trip Planner

Search our weather history database for the weather conditions in past years. The results will help you decide how hot, cold, wet, or windy it might be!

Date:

Astronomy

Sep. 23, 2013 Rise Set
Actual Time 7:33 AM EDT 7:40 PM EDT
Civil Twilight 7:06 AM EDT 8:07 PM EDT
Nautical Twilight 6:35 AM EDT 8:38 PM EDT
Astronomical Twilight 6:03 AM EDT 9:10 PM EDT
Moon 10:12 PM EDT (9/23) 11:52 AM EDT (9/23)
Length of Visible Light 13h 00m
Length of Day
12h 06m
Waning Gibbous, 81% of the Moon is Illuminated
Sep 23
Waning Gibbous
Sep 26
Last Quarter
Oct 4
New
Oct 11
First Quarter
Oct 18
Full

Hourly Weather History & Observations

Time (EDT) Temp. Dew Point Humidity Pressure Visibility Wind Dir Wind Speed Gust Speed Precip Events Conditions
12:53 AM 53.1 °F 45.0 °F 74% 30.03 in 10.0 mi Calm Calm - N/A   Clear
1:53 AM 50.0 °F 44.1 °F 80% 30.03 in 10.0 mi NNE 3.5 mph - N/A   Clear
2:53 AM 51.1 °F 44.1 °F 77% 30.04 in 10.0 mi NE 3.5 mph - N/A   Clear
3:53 AM 50.0 °F 44.1 °F 80% 30.04 in 10.0 mi NE 4.6 mph - N/A   Clear
4:53 AM 48.9 °F 44.1 °F 83% 30.04 in 10.0 mi Calm Calm - N/A   Clear
5:53 AM 46.9 °F 44.1 °F 90% 30.05 in 10.0 mi Calm Calm - N/A   Clear
6:53 AM 46.9 °F 43.0 °F 86% 30.06 in 10.0 mi Calm Calm - N/A   Clear
7:53 AM 46.9 °F 43.0 °F 86% 30.09 in 10.0 mi Calm Calm - N/A   Clear
8:53 AM 50.0 °F 45.0 °F 83% 30.10 in 10.0 mi ESE 4.6 mph - N/A   Clear
9:53 AM 55.0 °F 45.0 °F 69% 30.10 in 10.0 mi SSE 5.8 mph - N/A   Clear
10:53 AM 59.0 °F 46.0 °F 62% 30.11 in 10.0 mi SE 6.9 mph - N/A   Clear
11:53 AM 62.1 °F 46.0 °F 56% 30.11 in 10.0 mi ESE 8.1 mph - N/A   Clear
12:53 PM 64.0 °F 45.0 °F 50% 30.10 in 10.0 mi ENE 5.8 mph - N/A   Clear
1:53 PM 66.0 °F 45.0 °F 47% 30.09 in 10.0 mi SE 9.2 mph - N/A   Clear
2:53 PM 68.0 °F 45.0 °F 43% 30.06 in 10.0 mi East 6.9 mph - N/A   Clear
3:53 PM 69.1 °F 45.0 °F 42% 30.04 in 10.0 mi Variable 4.6 mph - N/A   Clear
4:53 PM 69.1 °F 43.0 °F 39% 30.04 in 10.0 mi ENE 8.1 mph - N/A   Clear
5:53 PM 69.1 °F 43.0 °F 39% 30.03 in 10.0 mi ESE 5.8 mph - N/A   Clear
6:53 PM 68.0 °F 43.0 °F 40% 30.03 in 10.0 mi ESE 8.1 mph - N/A   Clear
7:53 PM 63.0 °F 44.1 °F 50% 30.04 in 10.0 mi Calm Calm - N/A   Clear
8:53 PM 60.1 °F 45.0 °F 57% 30.05 in 10.0 mi East 3.5 mph - N/A   Clear
9:53 PM 57.9 °F 45.0 °F 62% 30.06 in 10.0 mi ESE 3.5 mph - N/A   Clear
10:53 PM 55.9 °F 46.0 °F 69% 30.05 in 10.0 mi ESE 3.5 mph - N/A   Clear
11:53 PM 55.0 °F 46.0 °F 72% 30.04 in 10.0 mi ESE 3.5 mph - N/A   Clear